LogID,LogEntryDate,LogEntryTime,LogEntrySeconds,01_LogMark,AFR,STFT,CurrentLTFT,IdleLTFT,CruiseLTFT,Load,O2Sensor2,IPW,AFRMAP,LoadTiming,TimingAdv,KnockSum,RPM,Baro,MAP,Boost,WGDC_Active,MAF,IDC,InVVTtarget,APP,ExVVTtarget,InVVTactual,ExVVTactual,TPS,IAT,WGDCCorr,Speed,Battery,ECT,MAT,MAPCalcs,IMAPCalcs,MAFCalcs,ChosenCalc,Custom
1,2024-06-25,04:59:29.52119,0.32173,0,0,-7.421875,-1.953125,-12.5,-1.953125,23.4375,,1.4,,21.875,40,0,3351.5625,15.01140609,5.1138057,-9.89760039,0,1.9608,3.91015625,11.875,,-1.875,11.25,-1.25,18.0392156862745,77,0,37.29,,185,96.8,25,0,21.875,21.875,
2,2024-06-25,04:59:29.56807,0.3764,0,15.1,-7.421875,-1.953125,-12.5,-1.953125,21.875,,1.4,,21.875,40,0,3351.5625,15.01140609,5.1138057,-9.89760039,0,1.9608,3.91015625,11.875,,-1.875,11.25,-1.25,18.0392156862745,77,0,37.29,,185,96.8,25,0,23.4375,23.4375,
3,2024-06-25,04:59:29.64624,0.45078,0,15.1,-7.421875,-1.953125,-12.5,-1.953125,23.4375,,1.4,,23.4375,40,0,3351.5625,15.01140609,5.1138057,-9.89760039,0,1.980408,3.91015625,11.875,,-1.875,11.25,-1.25,18.0392156862745,77,0,37.29,,185,96.8,26.5625,0,23.4375,23.4375,
4,2024-06-25,04:59:29.70872,0.50873,0,14.9,-5.46875,-1.953125,-12.5,-1.953125,23.4375,,1.4,,23.4375,40,0,3351.5625,15.01140609,5.1138057,-9.89760039,0,1.980408,3.91015625,11.875,,-1.875,11.09375,-1.25,18.0392156862745,77,0,37.29,,185,96.8,26.5625,0,23.4375,23.4375,
5,2024-06-25,04:59:29.73998,0.54898,0,14.9,-5.46875,-1.953125,-12.5,-1.953125,23.4375,,1.4,,23.4375,40,0,3351.5625,15.01140609,5.1138057,-9.89760039,0,1.9608,3.91015625,11.875,,-1.875,11.09375,-1.25,18.0392156862745,77,0,37.29,,185,96.8,25,0,21.875,23.4375,
6,2024-06-25,04:59:29.80244,0.60073,0,13.6,-5.46875,-1.953125,-12.5,-1.953125,23.4375,,1.4,,23.4375,40,0,3351.5625,15.01140609,5.1138057,-9.89760039,0,1.9608,3.91015625,11.875,,-1.875,10.9375,-1.25,18.0392156862745,77,0,37.29,,185,96.8,25,0,25,23.4375,
7,2024-06-25,04:59:29.91182,0.70813,0,13.6,-5.6640625,-1.953125,-12.5,-1.953125,23.4375,,1.4,,23.4375,40,0,3351.5625,15.01140609,5.2102926,-9.80111349,0,1.980408,3.91015625,11.875,,-1.875,10.9375,-1.25,18.0392156862745,77,0,37.29,,185,96.8,25,0,21.875,23.4375,
8,2024-06-25,04:59:29.97432,0.7778,0,16.2,-5.6640625,-1.953125,-12.5,-1.953125,23.4375,,1.4,,23.4375,40,0,3343.75,15.01140609,5.2102926,-9.80111349,0,1.980408,3.90104166666667,11.875,,-1.875,11.25,-1.25,18.0392156862745,77,0,37.29,,185,96.8,25,0,23.4375,21.875,
9,2024-06-25,04:59:30.08375,0.88791,0,16.2,-5.6640625,-1.953125,-12.5,-1.953125,23.4375,,1.4,,23.4375,40,0,3351.5625,15.01140609,5.1138057,-9.89760039,0,1.941192,3.91015625,11.875,,-1.875,11.25,-1.25,18.0392156862745,77,0,37.29,,185,96.8,25,0,23.4375,23.4375,
10,2024-06-25,04:59:30.17745,0.9795,0,14.4,-6.8359375,-1.953125,-12.5,-1.953125,23.4375,,1.4,,23.4375,40,0,3367.1875,15.01140609,5.1138057,-9.89760039,0,1.941192,3.92838541666667,11.875,,-1.875,11.09375,-1.40625,18.0392156862745,77,0,37.29,,185,96.8,25,0,23.4375,21.875,
11,2024-06-25,04:59:30.20869,1.01855,0,14.4,-6.8359375,-1.953125,-12.5,-1.953125,23.4375,,1.4,,23.4375,40,0,3367.1875,15.01140609,5.1138057,-9.89760039,0,2.000016,3.92838541666667,11.875,,-1.875,11.09375,-1.40625,18.0392156862745,77,0,37.29,,185,96.8,25,0,21.875,23.4375,
12,2024-06-25,04:59:30.28684,1.08824,0,14.8,-6.8359375,-1.953125,-12.5,-1.953125,23.4375,,1.4,,23.4375,40,0,3351.5625,15.01140609,5.1138057,-9.89760039,0,2.000016,3.91015625,11.875,,-1.875,11.09375,-1.25,18.0392156862745,77,0,37.29,,185,96.8,25,0,23.4375,23.4375,
13,2024-06-25,04:59:30.39628,1.19407,0,14.8,-7.03125,-1.953125,-12.5,-1.953125,23.4375,,1.4,,23.4375,40,0,3343.75,15.01140609,5.2102926,-9.80111349,0,2.019624,3.90104166666667,11.875,,-1.875,11.09375,-1.25,18.0392156862745,77,0,37.29,,185,96.8,26.5625,0,25,23.4375,
14,2024-06-25,04:59:30.47432,1.27309,0,14.7,-7.03125,-1.953125,-12.5,-1.953125,23.4375,,1.4,,23.4375,40,0,3351.5625,15.01140609,5.2102926,-9.80111349,0,2.019624,3.91015625,12.5,,-2.5,11.40625,-1.5625,18.4313725490196,77,0,37.29,,185,96.8,26.5625,0,25,23.4375,
15,2024-06-25,04:59:30.53682,1.33929,0,14.7,-7.03125,-1.953125,-12.5,-1.953125,23.4375,,1.4,,23.4375,40,0,3359.375,15.01140609,5.2102926,-9.80111349,0,2.000016,3.91927083333333,12.5,,-2.5,11.40625,-1.5625,18.4313725490196,77,0,37.29,,185,96.8,26.5625,0,25,23.4375,
16,2024-06-25,04:59:30.61494,1.42518,0,14.8,-5.6640625,-1.953125,-12.5,-1.953125,23.4375,,1.4,,23.4375,40,0,3351.5625,15.01140609,5.2102926,-9.80111349,0,2.000016,3.91015625,12.5,,-2.5,11.5625,-1.875,18.4313725490196,77,0,37.29,,185,96.8,26.5625,0,25,23.4375,
17,2024-06-25,04:59:30.70874,1.51012,0,14.8,-5.6640625,-1.953125,-12.5,-1.953125,23.4375,,1.4,,23.4375,40,0,3335.9375,15.01140609,5.3067795,-9.70462659,0,1.980408,3.89192708333333,12.5,,-2.5,11.5625,-1.875,18.4313725490196,77,0,37.29,,185,96.8,26.5625,0,23.4375,23.4375,
18,2024-06-25,04:59:30.75557,1.56526,0,14.8,-5.6640625,-1.953125,-12.5,-1.953125,23.4375,,1.4,,23.4375,40,0,3359.375,15.01140609,5.3067795,-9.70462659,0,1.980408,3.91927083333333,12.5,,-2.5,11.71875,-1.875,18.4313725490196,77,0,37.29,,185,96.8,26.5625,0,25,23.4375,
19,2024-06-25,04:59:30.84932,1.65866,0,14.8,-4.4921875,-1.953125,-12.5,-1.953125,23.4375,,1.4,,23.4375,40,0,3343.75,15.01140609,5.3067795,-9.70462659,0,2.019624,3.90104166666667,12.5,,-2.5,11.71875,-1.875,18.4313725490196,77,0,37.29,,185,96.8,26.5625,0,25,25,
20,2024-06-25,04:59:30.92744,1.7233,0,14.8,-4.4921875,-1.953125,-12.5,-1.953125,25,,1.4,,25,40,0,3343.75,15.01140609,5.3067795,-9.70462659,0,2.019624,3.90104166666667,12.5,,-2.5,11.875,-1.875,18.4313725490196,77,0,37.29,,185,96.8,26.5625,0,23.4375,25,
21,2024-06-25,04:59:31.00557,1.81335,0,14.8,-4.4921875,-1.953125,-12.5,-1.953125,25,,1.4,,25,40,0,3351.5625,15.01140609,5.4032664,-9.60813969,0,2.000016,3.91015625,12.5,,-2.5,11.875,-1.875,18.4313725490196,77,0,37.29,,185,96.8,26.5625,0,21.875,25,
22,2024-06-25,04:59:31.11495,1.91206,0,14.8,-3.3203125,-1.953125,-12.5,-1.953125,25,,1.4,,25,40,0,3343.75,15.01140609,5.4032664,-9.60813969,0,2.000016,3.90104166666667,12.5,,-2.5,11.71875,-1.875,18.4313725490196,77,0,37.29,,185,96.8,26.5625,0,25,23.4375,
23,2024-06-25,04:59:31.20873,2.01675,0,14.8,-3.3203125,-1.953125,-12.5,-1.953125,23.4375,,1.4,,25,40,0,3351.5625,15.01140609,5.3067795,-9.70462659,0,2.000016,3.91015625,12.5,,-2.5,11.71875,-1.875,18.4313725490196,77,0,37.29,,185,96.8,26.5625,0,23.4375,23.4375,
24,2024-06-25,04:59:31.28682,2.08251,0,13.9,-3.3203125,-1.953125,-12.5,-1.953125,25,,1.4,,25,40,0,3351.5625,15.01140609,5.3067795,-9.70462659,0,2.000016,3.91015625,12.5,,-2.5,11.875,-1.875,18.4313725490196,77,0,37.29,,185,96.8,26.5625,0,23.4375,25,
25,2024-06-25,04:59:31.39622,2.19676,0,13.9,-3.7109375,-1.953125,-12.5,-1.953125,25,,1.4,,25,40,0,3343.75,15.01140609,5.4032664,-9.60813969,0,2.000016,3.90104166666667,12.5,,-2.5,11.875,-1.875,18.4313725490196,77,0,37.29,,185,96.8,26.5625,0,25,25,
26,2024-06-25,04:59:31.47441,2.27198,0,14.6,-3.7109375,-1.953125,-12.5,-1.953125,25,,1.4,,25,40,0,3351.5625,15.01140609,5.4032664,-9.60813969,0,2.000016,3.91015625,12.5,,-2.5,11.71875,-1.875,18.4313725490196,77,0,37.29,,185,96.8,26.5625,0,23.4375,25,
27,2024-06-25,04:59:31.50562,2.30296,0,14.4,-3.7109375,-1.953125,-12.5,-1.953125,25,,1.4,,25,40,0,3351.5625,15.01140609,5.4032664,-9.60813969,0,2.000016,3.91015625,12.5,,-2.5,11.71875,-1.875,18.4313725490196,77,0,37.29,,185,96.8,26.5625,0,23.4375,25,
28,2024-06-25,04:59:31.56811,2.36593,0,14.4,-4.6875,-1.953125,-12.5,-1.953125,25,,1.4,,25,40,0,3351.5625,15.01140609,5.4032664,-9.60813969,0,2.000016,3.91015625,12.5,,-2.5,11.71875,-1.875,18.4313725490196,77,0,37.29,,185,96.8,26.5625,0,23.4375,23.4375,
29,2024-06-25,04:59:31.58373,2.39307,0,14.4,-4.6875,-1.953125,-12.5,-1.953125,25,,1.4,,25,40,0,3351.5625,15.01140609,5.4032664,-9.60813969,0,2.000016,3.91015625,12.5,,-2.5,11.71875,-1.875,18.4313725490196,77,0,37.29,,185,96.8,26.5625,0,25,25,
30,2024-06-25,04:59:31.61498,2.41854,0,14.4,-4.6875,-1.953125,-12.5,-1.953125,25,,1.4,,25,40,0,3351.5625,15.01140609,5.4032664,-9.60813969,0,2.000016,3.91015625,12.5,,-2.5,11.71875,-1.875,18.4313725490196,77,0,37.29,,185,96.8,26.5625,0,23.4375,23.4375,
31,2024-06-25,04:59:31.78683,2.58907,0,14,-3.90625,-1.953125,-12.5,-1.953125,25,,1.4,,25,40,0,3359.375,15.01140609,5.4032664,-9.60813969,0,2.039232,3.91927083333333,12.5,,-2.5,11.71875,-1.875,18.4313725490196,77,0,37.29,,185,96.8,26.5625,0,25,25,
32,2024-06-25,04:59:31.89624,2.70067,0,14.7,-3.90625,-1.953125,-12.5,-1.953125,25,,1.4,,25,40,0,3351.5625,15.01140609,5.4032664,-9.60813969,0,2.039232,3.91015625,13.125,,-3.125,11.875,-1.71875,18.8235294117647,77,0,37.29,,185,96.8,28.125,0,25,25,
33,2024-06-25,04:59:32.00557,2.81287,0,14.7,-3.90625,-1.953125,-12.5,-1.953125,25,,1.5,,26.5625,40,0,3359.375,15.01140609,5.4997533,-9.51165279,0,2.039232,4.19921875,13.125,,-3.125,11.875,-1.71875,18.8235294117647,77,0,37.29,,183.2,96.8,28.125,0,26.5625,26.5625,
34,2024-06-25,04:59:32.11495,2.91703,0,14.8,-2.1484375,-1.953125,-12.5,-1.953125,26.5625,,1.5,,26.5625,40,0,3351.5625,15.01140609,5.4997533,-9.51165279,0,2.039232,4.189453125,13.125,,-3.125,12.1875,-2.34375,18.8235294117647,77,0,37.29,,183.2,96.8,28.125,0,26.5625,25,
35,2024-06-25,04:59:32.17747,2.97417,0,14.8,-2.1484375,-1.953125,-12.5,-1.953125,26.5625,,1.5,,26.5625,40,0,3351.5625,15.01140609,5.5962402,-9.41516589,0,2.019624,4.189453125,13.125,,-3.125,12.1875,-2.34375,18.8235294117647,77,0,37.29,,183.2,96.8,28.125,0,26.5625,25,
36,2024-06-25,04:59:32.20871,3.00522,0,14.8,-2.1484375,-1.953125,-12.5,-1.953125,26.5625,,1.5,,26.5625,40,0,3351.5625,15.01140609,5.5962402,-9.41516589,0,2.019624,4.189453125,13.125,,-3.125,12.34375,-2.5,18.8235294117647,77,0,37.29,,183.2,96.8,28.125,0,25,25,
37,2024-06-25,04:59:32.30245,3.10257,0,14.8,-1.171875,-1.953125,-12.5,-1.953125,25,,1.5,,25,40,0,3351.5625,15.01140609,5.5962402,-9.41516589,0,2.05884,4.189453125,13.125,,-3.125,12.34375,-2.5,18.8235294117647,77,0,37.29,,183.2,96.8,28.125,0,26.5625,26.5625,
38,2024-06-25,04:59:32.36495,3.16762,0,14.8,-1.171875,-1.953125,-12.5,-1.953125,26.5625,,1.5,,26.5625,40,0,3351.5625,15.01140609,5.5962402,-9.41516589,0,2.05884,4.189453125,13.125,,-3.125,12.5,-2.34375,18.8235294117647,77,0,37.29,,183.2,96.8,28.125,0,26.5625,26.5625,
39,2024-06-25,04:59:32.42746,3.23403,0,14.8,-1.171875,-1.953125,-12.5,-1.953125,26.5625,,1.5,,26.5625,40,0,3359.375,15.01140609,5.5962402,-9.41516589,0,2.039232,4.19921875,13.125,,-3.125,12.5,-2.34375,18.8235294117647,77,0,37.29,,183.2,96.8,28.125,0,28.125,26.5625,
40,2024-06-25,04:59:32.48994,3.29043,0,14.6,0,-1.953125,-12.5,-1.953125,26.5625,,1.5,,26.5625,40,0,3359.375,15.01140609,5.5962402,-9.41516589,0,2.039232,4.19921875,13.125,,-3.125,12.5,-2.1875,18.8235294117647,77,0,37.29,,183.2,96.8,28.125,0,26.5625,26.5625,
41,2024-06-25,04:59:32.53682,3.34506,0,14.6,0,-1.953125,-12.5,-1.953125,26.5625,,1.5,,26.5625,40,0,3359.375,15.01140609,5.6927271,-9.31867899,0,2.000016,4.19921875,13.125,,-3.125,12.5,-2.1875,18.8235294117647,77,0,37.29,,183.2,96.8,28.125,0,25,26.5625,
42,2024-06-25,04:59:32.59935,3.40872,0,14.6,0,-1.953125,-12.5,-1.953125,26.5625,,1.5,,26.5625,40,0,3367.1875,15.01140609,5.6927271,-9.31867899,0,2.000016,4.208984375,13.125,,-3.125,12.65625,-2.34375,18.8235294117647,77,0,37.29,,183.2,96.8,28.125,0,26.5625,26.5625,
43,2024-06-25,04:59:32.67747,3.48206,0,14.6,0.9765625,-1.953125,-12.5,-1.953125,26.5625,,1.5,,26.5625,40,0,3367.1875,15.01140609,5.5962402,-9.41516589,0,2.039232,4.208984375,13.125,,-3.125,12.65625,-2.34375,18.8235294117647,77,0,37.29,,183.2,96.8,28.125,0,28.125,26.5625,
44,2024-06-25,04:59:32.73994,3.54685,0,14.6,0.9765625,-1.953125,-12.5,-1.953125,26.5625,,1.5,,26.5625,40,0,3359.375,15.01140609,5.5962402,-9.41516589,0,2.039232,4.19921875,13.75,,-3.75,12.5,-2.34375,18.8235294117647,77,0,37.29,,183.2,96.8,28.125,0,26.5625,26.5625,
45,2024-06-25,04:59:32.80245,3.6018,0,14.8,0.9765625,-1.953125,-12.5,-1.953125,26.5625,,1.5,,26.5625,40,0,3367.1875,15.01140609,5.5962402,-9.41516589,0,2.039232,4.208984375,13.75,,-3.75,12.5,-2.34375,18.8235294117647,77,0,37.29,,183.2,96.8,28.125,0,26.5625,26.5625,
46,2024-06-25,04:59:32.84936,3.65929,0,14.8,0,-1.953125,-12.5,-1.953125,26.5625,,1.5,,26.5625,40,0,3367.1875,15.01140609,5.5962402,-9.41516589,0,2.039232,4.208984375,13.125,,-3.125,12.8125,-2.8125,18.8235294117647,77,0,37.29,,183.2,96.8,28.125,0,26.5625,26.5625,
47,2024-06-25,04:59:32.89621,3.69935,0,14.8,0,-1.953125,-12.5,-1.953125,26.5625,,1.5,,26.5625,40,0,3367.1875,15.01140609,5.5962402,-9.41516589,0,2.05884,4.208984375,13.125,,-3.125,12.8125,-2.8125,18.8235294117647,77,0,37.29,,183.2,96.8,28.125,0,25,26.5625,
48,2024-06-25,04:59:32.95873,3.76193,0,14.3,0,-1.953125,-12.5,-1.953125,26.5625,,1.5,,26.5625,40,0,3359.375,15.01140609,5.5962402,-9.41516589,0,2.05884,4.19921875,13.125,,-3.125,12.65625,-2.5,18.8235294117647,77,0,37.29,,183.2,96.8,28.125,0,26.5625,26.5625,
49,2024-06-25,04:59:33.06807,3.86515,0,14.3,-0.5859375,-1.953125,-12.5,-1.953125,26.5625,,1.5,,26.5625,40,0,3367.1875,15.01140609,5.789214,-9.22219209,0,2.137272,4.208984375,13.125,,-3.125,12.65625,-2.5,18.8235294117647,77,0,37.29,,183.2,96.8,31.25,0,32.8125,28.125,
50,2024-06-25,04:59:33.16190,3.95931,0,14.3,-0.5859375,-1.953125,-12.5,-1.953125,29.6875,,1.5,,29.6875,40,0,3351.5625,15.01140609,5.789214,-9.22219209,0,2.137272,4.189453125,16.875,,-7.5,12.8125,-3.28125,26.2745098039216,77,0,37.29,,183.2,96.8,43.75,0,59.375,43.75,
51,2024-06-25,04:59:33.30244,4.10459,0,14.3,-0.5859375,-1.953125,-12.5,-1.953125,40.625,,1.9,,51.5625,41,0,3406.25,15.01140609,12.7362708,-2.27513529,4.5,2.823552,5.39322916666667,16.875,,-7.5,12.8125,-3.28125,26.2745098039216,77,0,37.29,,183.2,96.8,84.375,0,90.625,78.125,
52,2024-06-25,04:59:33.44308,4.2492,0,14.4,-1.3671875,-1.953125,-12.5,-1.953125,81.25,,2.7,,84.375,32,0,3414.0625,15.01140609,12.7362708,-2.27513529,4.5,2.823552,7.681640625,33.125,,-20,26.5625,-18.75,26.2745098039216,77,0,37.29,,183.2,96.8,93.75,0,101.5625,93.75,
53,2024-06-25,04:59:33.59932,4.39897,0,13.1,-1.3671875,-1.953125,-12.5,-1.953125,93.75,,3.2,,95.3125,28,0,3460.9375,15.01140609,15.6308778,0.619471710000001,13,3.13728,9.22916666666667,33.125,,-20,26.5625,-18.75,55.2941176470588,77,0,37.29,,183.2,96.8,103.125,0,115.625,103.125,
54,2024-06-25,04:59:33.70871,4.51171,0,15.5,-1.3671875,-1.953125,-12.5,-1.953125,103.125,,3.3,,104.6875,25,0,3523.4375,15.01140609,15.6308778,0.619471710000001,13,3.13728,9.689453125,33.125,,-18.75,32.1875,-19.6875,55.2941176470588,77,0,37.29,,183.2,96.8,109.375,0,128.125,109.375,
55,2024-06-25,04:59:33.88057,4.69149,0,13.8,0,0,-12.5,-1.953125,112.5,,4.4,,114.0625,23,0,3578.125,15.01140609,18.4289979,3.41759181,25,3.23532,13.1197916666667,33.125,,-18.75,32.1875,-19.6875,55.2941176470588,77,0,37.29,,183.2,96.8,123.4375,0,142.1875,123.4375,
56,2024-06-25,04:59:34.00559,4.80846,0,11.1,0,0,-12.5,-1.953125,123.4375,,4.9,,126.5625,21,0,3648.4375,15.01140609,18.4289979,3.41759181,25,3.23532,14.8977864583333,33.125,,-14.375,32.8125,-18.75,74.1176470588235,77,0,37.29,,183.2,96.8,131.25,0,156.25,131.25,
57,2024-06-25,04:59:34.16182,4.95909,0,10.6,0,0,-12.5,-1.953125,132.8125,,5.2,,134.375,20,0,3703.125,15.01140609,21.3236049,6.31219881,31,3.686304,16.046875,33.125,,-14.375,32.8125,-18.75,74.1176470588235,77,0,39.776,,183.2,96.8,145.3125,0,173.4375,145.3125,
58,2024-06-25,04:59:34.25557,5.06347,0,10.6,0,0,-12.5,-1.953125,143.75,,5.7,,148.4375,17,0,3796.875,15.01140609,21.3236049,6.31219881,31,3.686304,18.03515625,33.125,,-9.375,32.96875,-16.09375,74.1176470588235,77,0,39.776,,183.2,96.8,154.6875,0,189.0625,154.6875,
59,2024-06-25,04:59:34.39623,5.20496,0,10.6,0,0,-12.5,-1.953125,154.6875,,6.1,,157.8125,14,0,3851.5625,15.01140609,25.3760547,10.36464861,37,3.607872,19.5787760416667,33.125,,-9.375,32.96875,-16.09375,84.7058823529412,77,7,39.776,,183.2,96.8,171.875,0,214.0625,171.875,
60,2024-06-25,04:59:34.52120,5.32298,0,10.8,0,0,-12.5,-1.953125,173.4375,,6.6,,176.5625,11,0,3953.125,15.01140609,25.3760547,10.36464861,37,3.607872,21.7421875,33.125,,-3.75,33.28125,-9.84375,84.7058823529412,77,7,39.776,,183.2,96.8,187.5,0,228.125,187.5,
61,2024-06-25,04:59:34.67744,5.47384,0,11,0,0,-12.5,-1.953125,189.0625,,7.2,,193.75,9,0,4070.3125,15.01140609,30.2003997,15.18899361,40.5,3.843168,24.421875,33.125,,-3.75,33.28125,-9.84375,84.7058823529412,77,7,39.776,,183.2,96.8,207.8125,0,232.8125,207.8125,
62,2024-06-25,04:59:34.77119,5.58013,0,11.3,0,0,-12.5,-1.953125,209.375,,8,,212.5,9,0,4171.875,15.01140609,30.2003997,15.18899361,40.5,3.843168,27.8125,33.125,,0,33.59375,-3.90625,84.3137254901961,77,7,39.776,,183.2,96.8,218.75,0,240.625,218.75,
63,2024-06-25,04:59:34.91182,5.72205,0,11.2,0,0,-12.5,-1.953125,221.875,,8.5,,225,9,0,4242.1875,15.01140609,33.5774412,18.56603511,41.5,4.098072,30.048828125,33.125,,0,33.59375,-3.90625,84.3137254901961,77,7,45.991,,183.2,96.8,234.375,0,235.9375,234.375,
64,2024-06-25,04:59:35.02120,5.82184,0,11,0,0,-12.5,-1.953125,234.375,,8.9,,239.0625,9,0,4359.375,15.01140609,33.5774412,18.56603511,41.5,4.098072,32.33203125,33.125,,0,33.75,-3.125,84.3137254901961,77,7,45.991,,183.2,96.8,243.75,0,251.5625,240.625,
65,2024-06-25,04:59:35.14619,5.94862,0,11,0,0,-12.5,-1.953125,240.625,,9.1,,239.0625,9,0,4460.9375,15.01140609,35.4106923,20.39928621,42,4.274544,33.8287760416667,33.125,,0,33.75,-3.125,83.5294117647059,77,7,45.991,,183.2,96.8,250,0,245.3125,245.3125,
66,2024-06-25,04:59:35.23997,6.04274,0,10.8,0,0,-12.5,-1.953125,245.3125,,9.1,,243.75,9,0,4546.875,15.01140609,35.4106923,20.39928621,42,4.274544,34.48046875,33.125,,0,33.59375,-2.8125,83.5294117647059,77,7,45.991,,183.2,96.8,254.6875,0,251.5625,245.3125,
67,2024-06-25,04:59:35.36500,6.16791,0,10.7,0,0,-12.5,-1.953125,245.3125,,9.2,,248.4375,9,0,4640.625,15.01140609,36.4720482,21.46064211,42,4.196112,35.578125,33.125,,0,33.59375,-2.8125,83.5294117647059,77,7,45.991,,183.2,96.8,257.8125,0,243.75,243.75,
68,2024-06-25,04:59:35.47432,6.27562,0,10.8,0,0,-12.5,-1.953125,245.3125,,9.1,,243.75,10,0,4781.25,15.01140609,36.4720482,21.46064211,42,4.196112,36.2578125,33.125,,0,33.75,-2.8125,83.921568627451,77,6.5,45.991,,183.2,96.8,260.9375,0,237.5,242.1875,
69,2024-06-25,04:59:35.59932,6.39672,0,10.8,0,0,-12.5,-1.953125,243.75,,9.1,,243.75,10,0,4843.75,15.01140609,36.5685351,21.55712901,42.5,4.235328,36.7317708333333,33.125,,0,33.75,-2.8125,83.921568627451,77,6.5,52.206,,183.2,96.8,260.9375,0,245.3125,242.1875,
70,2024-06-25,04:59:35.67747,6.4871,0,10.7,0,0,-12.5,-1.953125,242.1875,,9.1,,245.3125,10,0,4953.125,15.01140609,36.5685351,21.55712901,42.5,4.235328,37.5611979166667,33.125,,0,33.75,-2.65625,83.921568627451,77,6.5,52.206,,183.2,96.8,262.5,0,248.4375,245.3125,
71,2024-06-25,04:59:35.81807,6.61937,0,10.9,0,0,-12.5,-1.953125,245.3125,,9.1,,243.75,10,0,5023.4375,15.01140609,36.9544827,21.94307661,43,4.294152,38.0944010416667,33.125,,0,33.75,-2.65625,83.5294117647059,77,6,52.206,,183.2,96.8,267.1875,0,240.625,246.875,
72,2024-06-25,04:59:35.89623,6.70489,0,10.8,0,0,-12.5,-1.953125,245.3125,,9.1,,245.3125,11,0,5132.8125,15.01140609,36.9544827,21.94307661,43,4.294152,38.923828125,33.125,,0,33.59375,-2.65625,83.5294117647059,77,6,52.206,,183.2,96.8,267.1875,0,246.875,243.75,
73,2024-06-25,04:59:36.02119,6.8252,0,10.8,0,0,-12.5,-1.953125,243.75,,9.1,,243.75,11,0,5226.5625,15.01140609,36.665022,21.65361591,44,4.31376,39.634765625,33.125,,0,33.59375,-2.65625,83.5294117647059,77,6,52.206,,183.2,96.8,267.1875,0,239.0625,242.1875,
74,2024-06-25,04:59:36.11498,6.91144,0,10.7,0,0,-12.5,-1.953125,242.1875,,9.1,,243.75,11,0,5343.75,15.01140609,36.665022,21.65361591,44,4.31376,40.5234375,33.125,,0,33.59375,-2.5,83.5294117647059,77,6.5,52.206,,183.2,96.8,267.1875,0,251.5625,245.3125,
75,2024-06-25,04:59:36.23997,7.0436,0,10.7,0,0,-12.5,-1.953125,245.3125,,9.1,,242.1875,12,0,5414.0625,15.01140609,36.8579958,21.84658971,45,4.352976,41.056640625,33.125,,0,33.59375,-2.5,83.5294117647059,77,6.5,59.664,,183.2,96.8,268.75,0,239.0625,243.75,
76,2024-06-25,04:59:36.33369,7.13864,0,10.7,0,0,-12.5,-1.953125,243.75,,9.1,,243.75,12,0,5523.4375,15.01140609,36.8579958,21.84658971,45,4.352976,41.8860677083333,31.875,,0,33.75,-2.96875,83.5294117647059,77,6.5,59.664,,183.2,96.8,271.875,0,245.3125,245.3125,
77,2024-06-25,04:59:36.47435,7.28399,0,10.6,0,0,-12.5,-1.953125,245.3125,,9.2,,245.3125,12,0,5625,15.01140609,37.1474565,22.13605041,45.5,4.372584,43.125,31.875,,0,33.75,-2.96875,83.5294117647059,77,6.5,59.664,,183.2,96.8,275,0,239.0625,245.3125,
78,2024-06-25,04:59:36.58369,7.37948,0,10.5,0,0,-12.5,-1.953125,245.3125,,9.1,,245.3125,12,0,5734.375,15.01140609,37.1474565,22.13605041,45.5,4.372584,43.4856770833333,29.375,,0,32.65625,-2.96875,83.5294117647059,77,6.5,59.664,,183.2,95,275,0,250,246.875,
79,2024-06-25,04:59:36.70873,7.50935,0,10.5,0,0,-12.5,-1.953125,246.875,,9.2,,245.3125,12,0,5851.5625,15.01140609,37.2439434,22.23253731,46,4.470624,44.8619791666667,29.375,,0,32.65625,-2.96875,83.5294117647059,77,6.5,59.664,,183.2,95,278.125,0,250,250,
80,2024-06-25,04:59:36.80244,7.61296,0,10.5,0,0,-12.5,-1.953125,250,,9.3,,246.875,12,0,5953.125,15.01140609,37.2439434,22.23253731,46,4.470624,46.13671875,26.875,,0,30.46875,-3.28125,83.5294117647059,75.2,6.5,59.664,,183.2,95,278.125,0,248.4375,246.875,
81,2024-06-25,04:59:36.92748,7.73299,0,10.6,0,0,-12.5,-1.953125,248.4375,,9.3,,246.875,12,0,6023.4375,15.01140609,37.1474565,22.13605041,46.5,4.568664,46.681640625,26.875,,0,30.46875,-3.28125,83.5294117647059,75.2,6.5,65.879,,183.2,95,279.6875,0,251.5625,248.4375,
82,2024-06-25,04:59:37.00557,7.81261,0,10.3,0,0,-12.5,-1.953125,248.4375,,9.3,,248.4375,12,0,6117.1875,15.01140609,37.1474565,22.13605041,46.5,4.568664,47.408203125,25,,0,28.28125,-2.8125,83.5294117647059,75.2,6.5,65.879,,183.2,95,281.25,0,245.3125,248.4375,
83,2024-06-25,04:59:37.11499,7.92478,0,10.3,0,0,-12.5,-1.953125,250,,9.3,,248.4375,12,0,6179.6875,15.01140609,37.2439434,22.23253731,47,4.647096,47.892578125,25,,0,28.28125,-2.8125,83.5294117647059,75.2,6.5,65.879,,183.2,95,282.8125,0,248.4375,250,
84,2024-06-25,04:59:37.20875,8.01534,0,10.2,0,0,-12.5,-1.953125,250,,9.3,,250,12,0,6273.4375,15.01140609,37.2439434,22.23253731,47,4.647096,48.619140625,23.125,,0,25.9375,-2.34375,83.5294117647059,75.2,6.5,65.879,,183.2,95,282.8125,0,248.4375,246.875,
85,2024-06-25,04:59:37.31812,8.12824,0,10.2,0,0,-12.5,-1.953125,246.875,,9.2,,248.4375,12,0,6375,15.01140609,37.2439434,22.23253731,47.5,4.686312,48.875,23.125,,0,25.9375,-2.34375,83.5294117647059,75.2,6.5,65.879,,183.2,95,284.375,0,243.75,245.3125,
86,2024-06-25,04:59:37.44307,8.2421,0,10,0,0,-12.5,-1.953125,245.3125,,9.1,,245.3125,12,0,6476.5625,15.01140609,37.2439434,22.23253731,47.5,4.686312,49.1139322916667,21.25,,0,22.65625,-2.8125,83.5294117647059,75.2,6.5,65.879,,183.2,95,282.8125,0,242.1875,245.3125,
87,2024-06-25,04:59:37.56811,8.3718,0,10.2,0,0,-12.5,-1.953125,243.75,,9.1,,243.75,12,0,6562.5,15.01140609,37.0509696,22.03956351,48.5,4.647096,49.765625,21.25,,0,22.65625,-2.8125,83.5294117647059,75.2,6.5,73.337,,183.2,95,281.25,0,239.0625,243.75,
88,2024-06-25,04:59:37.64622,8.4518,0,10.2,0,0,-12.5,-1.953125,243.75,,9.1,,243.75,13,0,6656.25,15.01140609,37.0509696,22.03956351,48.5,4.647096,50.4765625,18.75,,0,19.84375,-2.96875,83.5294117647059,75.2,6.5,73.337,,183.2,95,279.6875,0,243.75,242.1875,
89,2024-06-25,04:59:37.77119,8.56802,0,10.2,0,0,-12.5,-1.953125,242.1875,,9.1,,243.75,13,0,6726.5625,15.01140609,36.665022,21.65361591,49,4.666704,51.009765625,18.75,,0,19.84375,-2.96875,83.5294117647059,75.2,6.5,73.337,,183.2,95,278.125,0,245.3125,243.75,
90,2024-06-25,04:59:37.86495,8.66369,0,10.2,0,0,-12.5,-1.953125,243.75,,9.1,,245.3125,13,0,6812.5,15.01140609,36.665022,21.65361591,49,4.666704,51.6614583333333,16.875,,0,16.5625,-2.8125,83.5294117647059,75.2,6.5,73.337,,183.2,93.2,281.25,0,245.3125,243.75,
91,2024-06-25,04:59:37.95874,8.76853,0,10.1,0,0,-12.5,-1.953125,243.75,,9.1,,243.75,13,0,6867.1875,15.01140609,37.0509696,22.03956351,49.5,4.725528,52.076171875,16.875,,0,16.5625,-2.8125,83.5294117647059,75.2,6.5,73.337,,183.2,93.2,281.25,0,242.1875,243.75,